Tallevast, FL

5:12 AM EDT on August 28, 2016 (GMT -0400)
Sarasota-bradenton

Weather History for KSRQ - January, 2010

Change the Weather History Date:

Saturday, January 16, 2010

  Actual Average Record
Temperature  
Mean Temperature 72 °F 61 °F  
Max Temperature 79 °F 71 °F 82 °F (1947)
Min Temperature 64 °F 52 °F 26 °F (1927)
Degree Days  
Heating Degree Days 0 5  
Month to date heating degree days 274 89  
Since 1 July heating degree days 411 244  
Cooling Degree Days 7 2  
Month to date cooling degree days 7 32  
Year to date cooling degree days 7 32  
Growing Degree Days 21 (Base 50)    
Moisture  
Dew Point 62 °F    
Average Humidity 78    
Maximum Humidity 87    
Minimum Humidity 54    
Precipitation  
Precipitation 1.05 in 0.06 in 2.73 in (1993)
Month to date precipitation 2.41 1.63  
Year to date precipitation 2.41 1.63  
Sea Level Pressure  
Sea Level Pressure 29.98 in    
Wind  
Wind Speed 16 mph (SSE)    
Max Wind Speed 30 mph    
Max Gust Speed 37 mph    
Visibility 8 miles    
Events Rain    
T = Trace of Precipitation, MM = Missing Value Source: NWS Daily Summary

Daily Weather History Graph

Daily Weather History Graph

Search for Another Location

Airport or City:

Trip Planner

Search our weather history database for the weather conditions in past years. The results will help you decide how hot, cold, wet, or windy it might be!

Date:

Astronomy

Jan. 16, 2010 Rise Set
Actual Time 7:21 AM EST 5:58 PM EST
Civil Twilight 6:56 AM EST 6:23 PM EST
Nautical Twilight 6:27 AM EST 6:52 PM EST
Astronomical Twilight 5:59 AM EST 7:20 PM EST
Moon 8:08 AM EST (1/16) 7:22 PM EST (1/16)
Length of Visible Light 11h 27m
Length of Day
10h 37m
New Moon, 2% of the Moon is Illuminated
Jan 16
New Moon
Jan 23
First Quarter
Jan 30
Full
Feb 5
Last Quarter
Feb 13
New

Hourly Weather History & Observations

Time (EST) Temp. Dew Point Humidity Pressure Visibility Wind Dir Wind Speed Gust Speed Precip Events Conditions
12:53 AM 66.0 °F 59.0 °F 78% 30.06 in 10.0 mi East 13.8 mph 21.9 mph N/A   Overcast
1:53 AM 66.0 °F 60.1 °F 81% 30.07 in 10.0 mi ESE 11.5 mph - N/A   Overcast
2:53 AM 66.0 °F 60.1 °F 81% 30.05 in 10.0 mi East 8.1 mph - N/A   Overcast
3:53 AM 64.9 °F 60.1 °F 84% 30.02 in 10.0 mi East 13.8 mph - N/A   Overcast
4:53 AM 66.0 °F 60.1 °F 81% 30.03 in 10.0 mi East 12.7 mph - N/A   Overcast
5:53 AM 64.9 °F 60.1 °F 84% 30.03 in 10.0 mi East 10.4 mph - N/A   Mostly Cloudy
6:53 AM 64.9 °F 59.0 °F 81% 30.04 in 10.0 mi East 11.5 mph - N/A   Overcast
7:53 AM 64.9 °F 60.1 °F 84% 30.03 in 10.0 mi East 12.7 mph - N/A   Overcast
8:53 AM 68.0 °F 60.1 °F 76% 30.04 in 10.0 mi ESE 18.4 mph 24.2 mph N/A   Overcast
9:53 AM 68.0 °F 61.0 °F 78% 30.06 in 10.0 mi ESE 15.0 mph 24.2 mph 0.00 in Rain Light Rain
10:53 AM 73.0 °F 61.0 °F 66% 30.03 in 10.0 mi ESE 20.7 mph 28.8 mph 0.00 in   Scattered Clouds
11:53 AM 73.9 °F 62.1 °F 66% 30.00 in 10.0 mi SE 27.6 mph 36.8 mph 0.00 in   Partly Cloudy
12:53 PM 77.0 °F 62.1 °F 60% 29.98 in 10.0 mi SE 23.0 mph 31.1 mph N/A   Partly Cloudy
1:53 PM 78.1 °F 62.1 °F 58% 29.96 in 10.0 mi SSE 23.0 mph 29.9 mph N/A   Clear
2:53 PM 78.1 °F 62.1 °F 58% 29.94 in 10.0 mi SSE 24.2 mph 31.1 mph N/A   Clear
3:53 PM 78.1 °F 61.0 °F 56% 29.92 in 10.0 mi SSE 27.6 mph 35.7 mph N/A   Clear
4:53 PM 75.9 °F 62.1 °F 62% 29.93 in 10.0 mi SSE 19.6 mph - N/A   Clear
5:53 PM 75.0 °F 61.0 °F 62% 29.91 in 10.0 mi SSE 20.7 mph - N/A   Partly Cloudy
6:53 PM 75.0 °F 62.1 °F 64% 29.92 in 10.0 mi SSE 13.8 mph 25.3 mph 0.00 in Rain Light Rain
7:53 PM 71.1 °F 64.0 °F 78% 29.92 in 10.0 mi SE 10.4 mph - 0.02 in Rain Light Rain
9:48 PM 69.8 °F 64.4 °F 83% 29.95 in 6.0 mi SW 6.9 mph - 0.29 in Rain Light Rain
9:53 PM 69.1 °F 64.9 °F 87% 29.95 in 6.0 mi SW 8.1 mph - 0.29 in Rain Light Rain
10:10 PM 68.0 °F 64.4 °F 88% 29.93 in 2.5 mi SSE 3.5 mph - 0.13 in Rain Rain
10:17 PM 69.8 °F 64.4 °F 83% 29.93 in 6.0 mi SSE 4.6 mph - 0.14 in Rain Light Rain
10:37 PM 64.4 °F 60.8 °F 88% 29.95 in 7.0 mi WSW 15.0 mph 21.9 mph 0.18 in Rain Light Rain
10:44 PM 64.4 °F 62.6 °F 94% 29.95 in 5.0 mi WSW 9.2 mph 20.7 mph 0.21 in Rain Rain
10:53 PM 66.0 °F 63.0 °F 90% 29.94 in 3.0 mi South 6.9 mph - 0.24 in Rain Light Rain
11:01 PM 64.4 °F 62.6 °F 94% 29.95 in 2.5 mi SSW 13.8 mph - 0.10 in Rain Heavy Rain
11:25 PM 66.2 °F 62.6 °F 88% 29.93 in 5.0 mi South 15.0 mph 23.0 mph 0.24 in Rain Light Rain
11:33 PM 66.2 °F 62.6 °F 88% 29.93 in 10.0 mi South 12.7 mph - 0.24 in   Overcast
11:53 PM 64.9 °F 62.1 °F 90% 29.93 in 3.0 mi SSW 16.1 mph - 0.31 in Rain Light Rain